Location: DaVinci Observatory
(43.1080°N, 78.6453°W)
Time: 22:03:30
(UTC-05:00)

N. Korean satellite - Pass Details

Date: 13 October 2017
Orbit: 461 x 513 km, 97.2° (Epoch: 17 December)

Event Time Altitude Azimuth Distance (km) Brightness Sun altitude
Rises 19:48:03 0° 188° (S) 2,550 10.3 -14.2°
Reaches altitude 10° 19:50:17 10° 199° (SSW) 1,664 9.5 -14.6°
Maximum altitude 19:53:30 31° 263° (W) 858 8.6 -15.2°
Drops below altitude 10° 19:56:42 10° 328° (NNW) 1,651 9.7 -15.8°
Sets 19:58:55 0° 338° (NNW) 2,525 10.6 -16.2°
